TimePDT,TemperatureF,Dew PointF,Humidity,Sea Level PressureIn,VisibilityMPH,Wind Direction,Wind SpeedMPH,Gust SpeedMPH,PrecipitationIn,Events,Conditions,WindDirDegrees,DateUTC
12:53 AM,45.0,36.0,71,29.93,10.0,Calm,Calm,-,N/A,,Clear,0,2012-10-08 07:53:00
1:53 AM,42.1,35.1,76,29.95,10.0,Calm,Calm,-,N/A,,Clear,0,2012-10-08 08:53:00
2:53 AM,41.0,35.1,79,29.95,10.0,Calm,Calm,-,N/A,,Clear,0,2012-10-08 09:53:00
3:53 AM,41.0,37.0,86,29.94,10.0,Calm,Calm,-,N/A,,Clear,0,2012-10-08 10:53:00
4:53 AM,39.9,35.1,83,29.96,10.0,Calm,Calm,-,N/A,,Clear,0,2012-10-08 11:53:00
5:53 AM,39.0,34.0,82,29.96,10.0,Calm,Calm,-,N/A,,Clear,0,2012-10-08 12:53:00
6:53 AM,37.9,33.1,83,29.98,10.0,Calm,Calm,-,N/A,,Clear,0,2012-10-08 13:53:00
7:53 AM,39.0,35.1,86,30.00,10.0,Calm,Calm,-,N/A,,Clear,0,2012-10-08 14:53:00
8:53 AM,48.0,37.0,66,30.01,10.0,SE,3.5,-,N/A,,Clear,130,2012-10-08 15:53:00
9:53 AM,52.0,37.9,59,30.00,10.0,ESE,3.5,-,N/A,,Clear,110,2012-10-08 16:53:00
10:53 AM,55.0,37.0,51,30.00,10.0,Calm,Calm,-,N/A,,Clear,0,2012-10-08 17:53:00
11:53 AM,57.9,36.0,44,30.01,10.0,Calm,Calm,-,N/A,,Clear,0,2012-10-08 18:53:00
12:53 PM,62.1,37.0,39,30.00,10.0,Calm,Calm,-,N/A,,Clear,0,2012-10-08 19:53:00
1:53 PM,64.9,37.0,36,29.97,10.0,Calm,Calm,-,N/A,,Clear,0,2012-10-08 20:53:00
2:53 PM,68.0,37.9,33,29.96,10.0,Calm,Calm,-,N/A,,Clear,0,2012-10-08 21:53:00
3:53 PM,70.0,37.0,30,29.95,10.0,Calm,Calm,-,N/A,,Clear,0,2012-10-08 22:53:00
4:53 PM,70.0,36.0,29,29.95,10.0,Calm,Calm,-,N/A,,Clear,0,2012-10-08 23:53:00
5:53 PM,68.0,41.0,37,29.95,10.0,Calm,Calm,-,N/A,,Clear,0,2012-10-09 00:53:00
6:53 PM,59.0,41.0,51,29.96,10.0,Calm,Calm,-,N/A,,Clear,0,2012-10-09 01:53:00
7:53 PM,57.0,42.1,57,29.97,10.0,Calm,Calm,-,N/A,,Clear,0,2012-10-09 02:53:00
8:53 PM,55.0,43.0,64,30.00,10.0,Calm,Calm,-,N/A,,Clear,0,2012-10-09 03:53:00
9:53 PM,48.9,41.0,74,30.02,10.0,Calm,Calm,-,N/A,,Clear,0,2012-10-09 04:53:00
10:53 PM,48.9,43.0,80,30.04,10.0,Calm,Calm,-,N/A,,Clear,0,2012-10-09 05:53:00
11:53 PM,52.0,45.0,77,30.05,10.0,Calm,Calm,-,N/A,,Clear,0,2012-10-09 06:53:00